カタログに戻る

PEGASUS R/B

運用中PO
NORAD 24286·ROCKET BODY·🇺🇸 United States

打ち上げ Aug 21, 1996 から Vandenberg Space Force Base

Loading…

次のパス (今後24時間)

TLE

最新Source: Space-Track

元期: Sep 14, 2026, 02:10 UTC

1 24286U 96049B   26257.09090739  .00008731  00000-0  61284-3 0  9992
2 24286  82.9307 271.3438 1646441 344.3848  11.1691 12.03059292252170

AllMySatでPEGASUS R/Bをリアルタイム追跡

Download on the App Store